GLONASS-K 1 (37372 NORAD) Tracking and Keplerian Element Data

This shows tracking and keplerian element data for the satellite.

Feedback or suggestion? Click here.




ElementValue
Catalog37372
NameGLONASS-K 1
Epoch Orbit5747
Epoch Day198.64113464
Epoch Year2018
RAAN51.2847
Inclination65.591
Eccentricity0.0006916
Argument of Perigee229.4503
Mean Anonmoly311.725
Mean Motion2.13107592
Decay Rate-5.3E-07
L11 37372U 11009A 18198.64113464 -.00000053 00000-0 00000-0 0 9998
L22 37372 65.5910 51.2847 0006916 229.4503 311.7250 2.13107592 57476

Live tracking and technical data element details for GLONASS-K 1 (NORAD 37372). GLONASS-K 1 can be tracked NOW for your location showing map with azimuth and elevation plus other details from your city location.

Track the satellite on the map from your city or location and see movement details for azimuth, elevation, latitude, longitude, range, height, and movement on the map or in text.







IsCatalogInMostPopularTable: catalog: 37372, numindb: 39
Update: records affected: 1



GetName: 37372 GLONASS-K 1

Hit Count: updated at: Thu, 19 Jul 2018 03:47:00 GMT